Weather History for KCJR - January, 2012

Change the Weather History Date:

Wednesday, January 11, 2012

  Actual Average (KOMH) Record (KOMH)
Temperature  
Mean Temperature 35 °F -  
Max Temperature 46 °F 41 °F 68 °F (1950)
Min Temperature 24 °F 22 °F -5 °F (1962)
Degree Days  
Heating Degree Days 30    
Moisture  
Dew Point 34 °F    
Average Humidity 97    
Maximum Humidity 100    
Minimum Humidity 87    
Precipitation  
Precipitation 0.35 in - - ()
Sea Level Pressure  
Sea Level Pressure 29.91 in    
Wind  
Wind Speed 1 mph (North)    
Max Wind Speed 7 mph    
Max Gust Speed -    
Visibility 7 miles    
Events Rain    
Averages and records for this station are not official NWS values.
T = Trace of Precipitation, MM = Missing Value Source: NWS Daily Summary

Daily Weather History Graph

Daily Weather History Graph

Search for Another Location

Airport or City:

Trip Planner

Search our weather history database for the weather conditions in past years. The results will help you decide how hot, cold, wet, or windy it might be!

Date:

Astronomy

Jan. 11, 2012 Rise Set
Actual Time 7:28 AM EST 5:09 PM EST
Civil Twilight 6:59 AM EST 5:39 PM EST
Nautical Twilight 6:26 AM EST 6:12 PM EST
Astronomical Twilight 5:54 AM EST 6:43 PM EST
Moon 8:03 PM EST (1/11) 8:41 AM EST (1/11)
Length of Visible Light 10h 39m
Length of Day
9h 41m
Waning Gibbous, 93% of the Moon is Illuminated
Jan 11
Waning Gibbous
Jan 16
Last Quarter
Jan 23
New
Jan 30
First Quarter
Feb 7
Full

Hourly Weather History & Observations

Time (EST) Temp. Windchill Dew Point Humidity Pressure Visibility Wind Dir Wind Speed Gust Speed Precip Events Conditions
12:15 AM 26.6 °F - 26.6 °F 100% 30.03 in 10.0 mi Calm Calm - N/A   Clear
12:35 AM 26.6 °F - 26.6 °F 100% 30.03 in 10.0 mi Calm Calm - N/A   Clear
12:55 AM 26.6 °F - 26.6 °F 100% 30.03 in 10.0 mi Calm Calm - N/A   Clear
1:15 AM 26.6 °F - 26.6 °F 100% 30.03 in 10.0 mi Calm Calm - N/A   Clear
1:35 AM 26.6 °F 22.6 °F 26.6 °F 100% 30.03 in 10.0 mi NNE 3.5 mph - N/A   Clear
1:55 AM 28.4 °F - 26.6 °F 93% 30.04 in 10.0 mi Calm Calm - N/A   Clear
2:15 AM 26.6 °F - 26.6 °F 100% 30.03 in 10.0 mi Calm Calm - N/A   Clear
2:35 AM 26.6 °F - 26.6 °F 100% 30.04 in 10.0 mi Calm Calm - N/A   Clear
2:55 AM 26.6 °F 21.2 °F 24.8 °F 93% 30.03 in 10.0 mi NNE 4.6 mph - N/A   Clear
3:15 AM 28.4 °F 21.2 °F 26.6 °F 93% 30.02 in 10.0 mi North 6.9 mph - N/A   Clear
3:35 AM 26.6 °F - 26.6 °F 100% 30.01 in 10.0 mi Calm Calm - N/A   Clear
3:55 AM 26.6 °F - 24.8 °F 93% 30.01 in 10.0 mi Calm Calm - N/A   Clear
4:15 AM 26.6 °F - 26.6 °F 100% 30.01 in 10.0 mi Calm Calm - N/A   Clear
4:35 AM 26.6 °F - 24.8 °F 93% 30.01 in 10.0 mi Calm Calm - N/A   Clear
4:55 AM 24.8 °F - 24.8 °F 100% 30.00 in 10.0 mi Calm Calm - N/A   Clear
5:15 AM 26.6 °F - 24.8 °F 93% 30.00 in 10.0 mi Calm Calm - N/A   Clear
5:35 AM 26.6 °F - 24.8 °F 93% 30.00 in 10.0 mi Calm Calm - N/A   Clear
5:55 AM 24.8 °F - 24.8 °F 100% 29.99 in 10.0 mi Calm Calm - N/A   Clear
6:15 AM 24.8 °F - 24.8 °F 100% 30.00 in 10.0 mi Calm Calm - N/A   Clear
6:35 AM 26.6 °F - 24.8 °F 93% 30.00 in 10.0 mi Calm Calm - N/A   Clear
6:55 AM 26.6 °F - 26.6 °F 100% 30.00 in 10.0 mi Calm Calm - N/A   Clear
7:15 AM 26.6 °F - 26.6 °F 100% 30.00 in 10.0 mi Calm Calm - N/A   Clear
7:35 AM 26.6 °F - 26.6 °F 100% 30.01 in 10.0 mi Calm Calm - N/A   Clear
7:55 AM 26.6 °F - 26.6 °F 100% 30.01 in 10.0 mi Calm Calm - N/A   Scattered Clouds
8:15 AM 28.4 °F - 28.4 °F 100% 30.01 in 10.0 mi Calm Calm - N/A   Scattered Clouds
8:35 AM 30.2 °F - 28.4 °F 93% 30.01 in 10.0 mi Calm Calm - N/A   Mostly Cloudy
8:55 AM 30.2 °F - 30.2 °F 100% 30.02 in 10.0 mi Calm Calm - N/A   Overcast
9:15 AM 32.0 °F - 30.2 °F 93% 30.02 in 10.0 mi Calm Calm - N/A   Overcast
9:55 AM 33.8 °F - 30.2 °F 87% 30.03 in 10.0 mi Calm Calm - N/A   Overcast
10:15 AM 33.8 °F - 32.0 °F 93% 30.02 in 10.0 mi Calm Calm - N/A   Overcast
10:35 AM 35.6 °F - 33.8 °F 93% 30.01 in 10.0 mi Calm Calm - N/A Rain Light Rain
10:55 AM 35.6 °F - 33.8 °F 93% 30.01 in 10.0 mi Calm Calm - N/A Rain Rain
11:15 AM 35.6 °F - 33.8 °F 93% 30.00 in 7.0 mi Calm Calm - N/A Rain Light Rain
11:35 AM 35.6 °F - 35.6 °F 100% 29.99 in 3.0 mi Calm Calm - 0.01 in Rain Rain
11:55 AM 37.4 °F - 35.6 °F 93% 29.97 in 3.0 mi Calm Calm - 0.03 in Rain Light Rain
12:15 PM 37.4 °F - 35.6 °F 93% 29.96 in 7.0 mi Calm Calm - N/A Rain Rain
12:35 PM 37.4 °F - 37.4 °F 100% 29.94 in 7.0 mi Calm Calm - N/A   Light Drizzle
12:55 PM 37.4 °F - 37.4 °F 100% 29.93 in 5.0 mi Calm Calm - N/A   Light Drizzle
1:15 PM 39.2 °F - 37.4 °F 93% 29.92 in 7.0 mi Calm Calm - N/A   Overcast
1:35 PM 39.2 °F - 37.4 °F 93% 29.91 in 7.0 mi Calm Calm - N/A   Overcast
1:55 PM 39.2 °F - 37.4 °F 93% 29.90 in 5.0 mi Calm Calm - N/A Rain Rain
2:15 PM 39.2 °F - 37.4 °F 93% 29.89 in 5.0 mi Calm Calm - N/A   Light Drizzle
2:35 PM 39.2 °F - 39.2 °F 100% 29.88 in 5.0 mi Calm Calm - N/A Rain Light Rain
2:55 PM 39.2 °F 35.9 °F 39.2 °F 100% 29.87 in 4.0 mi NNE 4.6 mph - N/A   Overcast
3:15 PM 39.2 °F - 39.2 °F 100% 29.88 in 4.0 mi Calm Calm - N/A   Overcast
3:35 PM 39.2 °F 35.9 °F 39.2 °F 100% 29.86 in 3.0 mi North 4.6 mph - N/A Rain Light Rain
3:55 PM 39.2 °F 35.9 °F 39.2 °F 100% 29.86 in 3.0 mi North 4.6 mph - N/A   Overcast
4:15 PM 39.2 °F - 39.2 °F 100% 29.85 in 3.0 mi Calm Calm - N/A   Light Drizzle
4:35 PM 39.2 °F 37.0 °F 39.2 °F 100% 29.84 in 2.5 mi North 3.5 mph - 0.01 in Rain Heavy Rain
4:55 PM 39.2 °F 35.9 °F 39.2 °F 100% 29.82 in 3.0 mi North 4.6 mph - 0.03 in Rain Rain
5:15 PM 41.0 °F 39.0 °F 39.2 °F 93% 29.82 in 3.0 mi North 3.5 mph - 0.03 in Rain Rain
5:35 PM 41.0 °F 37.1 °F 39.2 °F 93% 29.81 in 3.0 mi NNW 5.8 mph - 0.04 in Rain Rain
5:55 PM 41.0 °F 38.0 °F 41.0 °F 100% 29.78 in 2.5 mi North 4.6 mph - 0.08 in Rain Rain
6:15 PM 41.0 °F 38.0 °F 41.0 °F 100% 29.76 in 2.5 mi NNE 4.6 mph - 0.02 in Rain Rain
6:35 PM 42.8 °F 40.1 °F 42.8 °F 100% 29.74 in 2.5 mi North 4.6 mph - 0.02 in   Drizzle
7:15 PM 44.6 °F - 42.8 °F 93% 29.72 in 2.5 mi Calm Calm - 0.02 in Rain Rain
7:35 PM 44.6 °F 43.1 °F 44.6 °F 100% 29.70 in 2.5 mi NNE 3.5 mph - 0.04 in Rain Heavy Rain
7:55 PM 44.6 °F 41.4 °F 44.6 °F 100% 29.69 in 2.5 mi North 5.8 mph - 0.06 in Rain Rain
8:15 PM 44.6 °F 42.2 °F 44.6 °F 100% 29.67 in 2.5 mi NNE 4.6 mph - 0.01 in Rain Rain
8:35 PM 44.6 °F 43.1 °F 44.6 °F 100% 29.64 in 3.0 mi NNE 3.5 mph - 0.02 in Rain Rain
8:55 PM 46.4 °F 43.5 °F 44.6 °F 93% 29.63 in 3.0 mi North 5.8 mph - 0.03 in Rain Rain
9:15 PM 46.4 °F 43.5 °F 46.4 °F 100% 29.60 in 3.0 mi North 5.8 mph - N/A Rain Light Rain
9:35 PM 46.4 °F 43.5 °F 46.4 °F 100% 29.58 in 4.0 mi NNE 5.8 mph - 0.01 in Rain Light Rain
9:55 PM 46.4 °F 44.3 °F 46.4 °F 100% 29.57 in 1.8 mi North 4.6 mph - 0.10 in Rain Heavy Rain
10:15 PM 46.4 °F 44.3 °F 46.4 °F 100% 29.57 in 2.0 mi North 4.6 mph - 0.15 in Rain Heavy Rain
10:35 PM 46.4 °F 42.9 °F 46.4 °F 100% 29.56 in 7.0 mi NW 6.9 mph - 0.28 in Rain Heavy Rain
10:55 PM 46.4 °F 42.4 °F 44.6 °F 93% 29.57 in 7.0 mi NW 8.1 mph - 0.31 in Rain Rain
11:15 PM 46.4 °F 41.9 °F 44.6 °F 93% 29.56 in 10.0 mi NW 9.2 mph - 0.01 in Rain Light Rain
11:35 PM 46.4 °F 41.9 °F 46.4 °F 100% 29.54 in 10.0 mi NNW 9.2 mph - 0.01 in Rain Light Rain
11:55 PM 46.4 °F 41.1 °F 44.6 °F 93% 29.53 in 7.0 mi North 11.5 mph - 0.03 in Rain Rain